Погода в Наймане

Узбекистан     40°36′08″N   72°30′55″E
темп.,
°C
ветер,
м/с
пор.,
м/с
влажн.,
%
обл.,
%
осадки,
мм/ч
давл.,
гПа
погр.,
м
1 марта, пн
пн123:00+1юв11410 0.0 102822
02:00+1ююз11461 0.0 102722
05:000ю11471 0.0 102822
08:00+2в114464 0.0 102833
11:00+7с213154 0.0 1024417
14:00+10сз21260 0.0 1022751
17:00+9сз22280 0.0 1023594
20:00+5в01370 0.0 102822
2 марта, вт
вт223:00+4вюв11390 0.0 102922
02:00+4вюв22410 0.0 103022
05:00+4юв114033 0.0 102922
08:00+5юв013882 0.0 102922
11:00+9зсз113091 0.0 1025339
14:00+11зсз2126100 0.0 1022677
17:00+11ссз1128100 0.0 1022400
20:00+8св0136100 0.0 102522
3 марта, ср
ср323:00+7ю0139100 0.0 102522
02:00+6зюз1239100 0.0 102522
05:00+5юз1140100 0.0 102522
08:00+6ююз1240100 0.0 102545
11:00+9сз1135100 0.0 1023612
14:00+10ссз223497 0.0 10201505
17:00+10ссз234392 0.0 1021864
20:00+7св1261100 0.0 1024116
4 марта, чт
чт423:00+6з116786 0.0 102526
02:00+4всв018128 0.0 102522
05:00+3всв118448 0.0 102622
08:00+5юв116538 0.0 102660
11:00+8ссз224567 0.0 1022591
14:00+11зсз213796 0.0 1019945
17:00+11ссв123598 0.0 1019609
20:00+9зюз2351100 0.0 102364
5 марта, пт
пт523:00+7ю5874100 0.4 1025367
02:00+7юв455999 0.0 102396
05:00+7з225998 0.0 102332
08:00+6зюз4773100 0.0 1024467
11:00+8зюз4760100 1.8 1024959
14:00+9юз1254100 0.1 10221142
17:00+9св236099 0.1 1023577
20:00+6всв237774 0.0 102792